This demonstration page uses our WeatherBlox Daily Observations layout. Learn more.

39.92423, -83.80882

Hourly Observations for August 9, 2017

Temp ( °F °C ) Dew Point ( °F °C ) Humidity (%) Winds ( mph kmh ) Pressure ( in mb ) Visibility ( mi km ) Precip ( " mm )
12:56 am 00:56 Clear 55 12.8 54 12.2 96 96 Calm 30.19 1023 10 16.0934 0 0
1:56 am 01:56 Clear 56 13.3 54 12.2 93 93 N 3 6 30.19 1023 10 16.0934 0 0
2:56 am 02:56 Clear 56 13.3 55 12.8 97 97 Calm 30.19 1023 10 16.0934 0 0
3:56 am 03:56 Clear 53 11.7 52 11.1 96 96 Calm 30.19 1023 10 16.0934 0 0
4:56 am 04:56 Clear 53 11.7 52 11.1 96 96 Calm 30.2 1023 10 16.0934 0 0
5:43 am 05:43 Mostly Clear with Mist and Fog 52 11 50 10 94 94 Calm 30.24 1024 2.5 4.02335 0 0
5:51 am 05:51 Clear with Mist and Fog 52 11 52 11 100 100 Calm 30.24 1024 1.75 2.816345 0 0
5:53 am 05:53 Clear with Mist and Fog 54 12 52 11 94 94 Calm 30.21 1023 3 4.82802 0 0
5:56 am 05:56 Clear 53 11.7 52 11.1 96 96 Calm 30.21 1023 8 12.87472 0 0
6:52 am 06:52 Sunny with Mist and Fog 52 11 52 11 100 100 undefined N/A 30.27 1025 1 1.60934 0 0
6:56 am 06:56 Sunny with Mist and Fog 52 11.1 51 10.6 97 97 undefined N/A 30.23 1024 1 1.60934 0 0
6:59 am 06:59 Sunny with Mist and Fog 52 11 52 11 100 100 undefined N/A 30.27 1025 2 3.21868 0 0
7:04 am 07:04 Sunny with Mist and Fog 52 11 52 11 100 100 undefined N/A 30.27 1025 1 1.60934 0 0
7:08 am 07:08 Sunny with Fog 52 11 52 11 100 100 undefined N/A 30.27 1025 0.5 0.80467 0 0
7:18 am 07:18 Sunny with Mist and Fog 54 12 52 11 94 94 Calm 30.27 1025 1.25 2.011675 0 0
7:25 am 07:25 Sunny 54 12 52 11 94 94 Calm 30.27 1025 8 12.87472 0 0
7:56 am 07:56 Sunny 57 13.9 56 13.3 96 96 Calm 30.24 1024 10 16.0934 0 0
8:56 am 08:56 Sunny 64 17.8 58 14.4 81 81 Calm 30.25 1024 10 16.0934 0 0
9:56 am 09:56 Sunny 70 21.1 56 13.3 61 61 Calm 30.24 1024 10 16.0934 0 0
10:56 am 10:56 Sunny 73 22.8 57 13.9 57 57 VRB 3 6 30.24 1024 10 16.0934 0 0
11:56 am 11:56 Sunny 74 23.3 58 14.4 57 57 VRB 5 7 30.24 1024 10 16.0934 0 0
12:56 pm 12:56 Sunny 76 24.4 57 13.9 52 52 Calm 30.23 1024 10 16.0934 0 0
1:56 pm 13:56 Sunny 77 25 58 14.4 52 52 VRB 5 7 30.22 1023 8 12.87472 0 0
2:56 pm 14:56 Sunny 78 25.6 57 13.9 48 48 E 7 11 30.21 1023 10 16.0934 0 0
3:56 pm 15:56 Sunny 78 25.6 58 14.4 50 50 E 6 9 30.19 1023 10 16.0934 0 0
4:56 pm 16:56 Sunny 79 26.1 58 14.4 49 49 E 7 11 30.18 1022 10 16.0934 0 0
5:56 pm 17:56 Sunny 78 25.6 58 14.4 50 50 ESE 7 11 30.18 1022 10 16.0934 0 0
6:56 pm 18:56 Sunny 76 24.4 57 13.9 52 52 ESE 6 9 30.17 1022 10 16.0934 0 0
7:56 pm 19:56 Sunny 72 22.2 61 16.1 68 68 ESE 3 6 30.17 1022 10 16.0934 0 0
8:56 pm 20:56 Clear 67 19.4 59 15 76 76 Calm 30.16 1022 10 16.0934 0 0
9:56 pm 21:56 Clear 63 17.2 58 14.4 84 84 Calm 30.18 1022 10 16.0934 0 0
10:56 pm 22:56 Clear 60 15.6 58 14.4 93 93 E 3 6 30.18 1022 10 16.0934 0 0
11:56 pm 23:56 Clear 61 16.1 57 13.9 87 87 Calm 30.19 1022 10 16.0934 0 0

Powered by AerisWeather